Theta_e
297 297 296 298 298 299 299 299 296 293 294 297 297 300 301 301 299 299 298 297 300 302 302 304 304 304 304 305 306 306 306 307 307 309 310 311 312 314
296 295 296 296 297 297 298 298 297 296 293 298 299 299 300 298 298 297 297 297 297 301 302 304 304 305 304 305 305 305 306 306 306 308 310 311 313 313
295 295 295 295 295 295 296 296 296 296 294 296 298 299 297 297 297 297 297 297 298 298 302 302 303 304 304 303 303 304 304 305 307 307 308 309 311 312
295 294 294 294 294 294 294 294 294 295 295 292 294 295 294 296 295 295 295 296 297 297 300 301 303 304 302 301 302 302 302 302 301 302 305 306 307 310
294 294 294 293 293 293 293 293 293 293 293 292 292 293 293 294 294 294 294 295 296 296 297 298 299 300 301 301 301 299 299 300 300 301 301 301 304 306
293 293 293 293 293 292 292 293 292 292 292 291 291 291 292 293 292 292 292 294 294 294 295 298 298 297 298 300 300 299 298 299 300 300 301 302 302 302
292 292 292 292 292 293 292 292 292 291 291 290 290 290 290 291 291 292 291 292 293 295 295 296 295 295 296 296 295 295 297 298 299 300 300 301 301 303
290 291 291 291 292 294 295 296 294 292 291 290 291 289 290 290 291 291 291 291 289 294 293 293 295 294 294 295 294 296 297 297 298 298 299 301 301 302
291 291 290 290 291 291 292 294 296 298 297 294 292 291 291 291 291 290 290 290 289 292 293 290 293 292 294 293 295 295 296 297 297 298 298 300 299 300
292 291 291 291 291 290 289 289 289 290 294 297 296 296 295 295 293 293 292 291 291 292 293 287 291 290 293 294 294 294 295 296 297 297 297 298 299 299
291 291 290 290 291 292 290 288 288 289 291 293 293 294 295 296 294 292 289 288 287 289 291 290 290 289 290 290 291 294 298 296 294 294 294 296 296 298
291 290 291 292 291 292 291 290 287 288 289 290 290 293 295 295 297 294 293 289 288 286 290 288 288 289 286 289 289 292 291 291 293 293 293 294 294 294
289 289 290 291 293 294 294 291 289 291 290 290 289 289 289 290 290 291 292 291 288 287 290 289 286 286 287 287 289 290 290 291 291 291 292 292 293 292
289 290 290 291 292 293 293 294 294 294 292 289 288 288 288 289 290 290 290 290 291 290 291 291 286 287 286 285 285 289 290 290 290 289 290 291 292 292
289 289 291 292 292 292 293 294 294 292 289 287 287 287 288 289 288 286 286 286 285 286 288 287 287 287 286 284 285 287 287 289 290 289 289 289 289 290
288 288 288 289 290 290 291 290 289 288 287 287 286 286 286 285 285 286 284 284 284 284 286 285 285 285 285 285 285 285 286 284 289 289 288 288 289 289
288 287 286 285 285 286 286 287 287 286 286 285 284 284 284 284 284 284 283 284 283 283 283 284 286 285 285 285 283 284 284 284 286 287 286 286 288 289
287 286 286 286 285 285 284 285 285 286 285 284 284 284 284 283 283 283 283 283 283 283 283 283 282 283 282 284 286 283 283 283 284 285 285 282 283 287
285 285 285 285 285 285 285 285 285 285 285 285 284 284 284 283 283 282 281 282 282 283 283 284 283 280 279 277 283 287 283 284 283 283 284 283 282 284
284 284 284 284 285 285 285 285 285 285 284 284 284 284 284 282 281 280 281 280 279 279 280 281 281 281 279 279 279 283 285 284 284 283 283 285 286 287
283 283 284 283 283 284 284 285 285 284 284 284 284 283 282 281 280 280 281 281 281 279 278 279 282 284 283 283 279 280 283 285 285 283 284 283 282 283
282 282 283 283 283 283 284 284 284 283 283 282 281 281 281 280 280 281 281 280 280 280 280 282 283 281 282 280 279 279 281 284 285 286 287 285 283 280
282 283 283 283 283 283 282 282 281 282 281 281 281 279 280 280 281 281 280 280 280 279 280 280 281 281 280 279 280 279 280 281 282 282 284 286 287 288
Wind_Speed
4 4 4 3 3 3 4 3 2 2 2 2 3 3 2 3 3 3 3 5 7 7 6 5 5 3 4 5 4 4 5 7 8 9 9 8 9 9
4 5 5 4 4 4 4 4 4 4 4 2 2 2 4 3 2 4 4 6 5 6 6 4 2 4 3 3 3 4 6 8 9 9 9 9 9 11
5 5 6 5 4 4 4 4 5 5 6 4 3 3 5 5 4 3 3 4 3 5 4 4 4 5 3 2 4 5 5 6 8 7 7 9 11 10
6 6 7 4 7 6 5 7 6 7 5 9 3 3 4 5 6 7 4 3 3 3 6 5 4 3 1 2 2 1 4 6 7 8 9 9 9 10
7 7 7 7 7 6 7 6 6 5 6 5 5 3 3 3 3 4 4 4 4 7 7 5 2 2 3 4 5 1 6 8 8 9 9 9 10 10
8 8 8 8 9 8 7 8 7 7 7 7 6 5 4 3 3 3 2 2 4 3 3 5 5 7 7 5 6 8 10 10 10 10 10 9 9 10
8 8 9 10 12 11 6 7 7 7 6 6 6 4 3 3 4 2 3 2 2 1 1 2 4 4 4 4 6 8 10 10 11 11 11 10 10 9
10 9 9 10 12 15 16 16 11 9 9 5 6 6 6 4 3 3 2 2 1 2 1 4 3 4 3 3 6 10 11 11 10 10 9 8 8 7
10 9 9 8 11 10 13 16 16 19 17 9 9 9 7 8 6 5 5 4 4 3 1 5 3 5 3 5 10 12 13 10 9 9 8 8 8 8
10 10 10 10 10 9 9 10 10 10 10 9 11 10 9 7 9 6 6 5 5 5 6 4 3 4 4 6 11 9 7 5 2 3 4 6 7 5
8 9 9 10 13 15 10 9 9 9 9 15 14 13 13 13 10 5 6 5 4 4 6 4 3 3 3 4 3 7 7 8 5 6 8 7 7 7
8 8 14 13 16 16 11 10 10 10 7 6 5 8 9 8 13 11 6 7 6 3 5 6 4 2 3 2 2 4 4 4 7 10 9 6 7 5
8 8 7 14 16 17 18 10 11 8 8 7 6 5 5 5 5 6 7 6 6 7 5 4 3 3 3 3 2 4 5 7 6 6 9 10 12 11
8 7 7 14 15 16 13 15 16 14 5 5 5 6 6 6 5 5 6 7 7 8 5 8 3 6 4 5 7 3 5 6 6 8 8 10 14 14
6 9 15 16 17 13 16 15 14 5 5 5 6 5 4 4 2 2 3 4 5 4 6 5 6 6 7 9 8 7 8 6 7 7 7 8 8 8
12 9 9 11 13 10 10 8 4 4 5 5 4 3 2 2 2 3 3 4 4 7 8 9 9 10 8 10 8 10 9 8 5 6 6 8 8 8
10 6 6 6 7 7 7 7 5 5 6 6 5 5 5 4 5 5 4 5 7 8 7 4 7 10 9 11 9 10 10 11 11 10 10 10 11 10
11 9 9 8 7 7 7 7 6 10 8 7 6 6 6 6 6 6 6 6 8 7 7 5 4 5 5 9 15 10 10 11 11 11 11 12 12 10
9 9 8 8 8 7 7 7 8 7 9 7 7 7 6 6 7 6 7 7 8 9 9 7 7 9 9 12 8 18 11 10 9 10 10 10 11 11
7 8 7 6 6 6 6 7 7 6 7 7 8 8 7 7 6 7 7 8 9 9 9 7 8 8 9 12 13 9 15 10 9 10 10 10 10 18
6 7 7 7 7 6 7 8 8 7 7 7 7 7 7 6 7 7 8 14 12 8 10 10 8 17 8 7 9 11 9 17 17 12 11 10 11 10
6 6 6 6 7 7 6 6 6 6 5 5 6 6 6 7 8 8 8 9 9 9 10 9 6 6 8 10 12 14 11 9 13 24 25 20 8 7
7 6 6 6 6 5 7 6 6 7 6 6 6 6 7 7 8 8 9 9 9 8 9 9 8 7 9 10 14 10 14 12 9 10 9 21 26 29
Wind_Direction
245 236 236 238 231 243 242 227 239 288 282 186 242 204 245 321 334 323 318 324 331 338 325 317 324 310 337 316 299 297 325 320 306 294 302 291 283 289
221 221 229 233 229 220 221 226 227 248 265 269 244 259 291 301 296 309 317 316 327 327 328 329 277 256 283 307 327 312 302 307 302 294 307 326 315 288
236 231 235 222 232 223 212 214 221 216 244 255 253 300 296 301 300 288 289 295 308 310 310 300 285 263 255 315 309 292 303 326 320 303 312 314 319 317
240 229 239 222 226 223 216 222 225 219 231 255 261 255 253 300 303 304 306 285 259 269 297 291 262 222 290 288 261 16 350 315 313 313 308 307 307 311
250 241 241 226 229 220 218 221 222 227 227 241 256 212 248 259 296 297 304 313 311 310 306 291 301 304 267 239 183 306 322 294 291 296 291 285 288 298
241 240 240 233 239 233 228 222 216 214 212 228 243 253 247 213 225 247 241 273 305 331 3 45 38 357 329 316 289 314 313 304 301 305 305 299 296 284
242 235 235 235 240 238 234 229 220 222 220 226 236 223 227 235 234 174 234 260 256 217 292 275 331 324 321 317 306 304 304 300 298 304 302 294 293 293
254 247 243 241 240 241 240 237 219 213 222 217 232 237 232 211 209 227 261 296 293 180 283 274 278 287 297 267 276 289 292 290 291 294 293 294 309 291
245 250 251 243 233 235 243 245 242 230 223 212 224 224 229 202 187 190 209 214 222 184 232 284 234 271 256 257 272 284 293 285 284 287 284 274 287 293
241 243 243 250 241 233 236 239 240 238 234 224 225 234 226 202 197 199 202 205 224 231 201 245 197 247 266 258 260 272 270 258 293 352 308 283 280 279
263 259 248 251 255 251 236 239 244 244 238 237 237 240 232 225 207 184 204 198 235 216 188 229 228 243 223 235 229 213 176 129 62 12 343 330 333 306
284 274 263 251 255 253 241 234 241 243 226 231 237 248 243 234 227 208 212 221 217 233 204 201 193 221 289 200 212 195 209 250 289 300 284 270 294 289
273 270 266 264 263 258 249 229 231 241 239 229 231 231 230 233 235 230 216 217 217 230 185 190 185 178 227 274 231 219 233 271 274 261 248 264 268 268
255 260 258 265 268 265 260 249 236 239 234 235 232 227 222 225 232 239 236 232 236 238 214 213 216 212 221 255 260 243 260 256 245 252 247 254 266 266
246 259 270 269 267 267 258 248 246 239 232 234 238 237 223 216 207 246 266 272 258 241 241 225 229 232 231 248 261 264 272 270 261 254 244 246 253 259
281 266 236 244 258 261 263 255 245 231 223 233 238 239 259 238 246 221 239 234 250 262 245 231 236 233 239 244 250 260 260 258 275 269 267 259 252 243
266 256 256 240 246 245 235 235 220 212 219 209 214 237 227 224 241 244 244 250 240 254 256 228 236 230 234 240 249 255 264 262 261 267 261 263 261 254
277 264 256 256 249 238 224 222 218 230 223 211 206 205 213 208 216 223 239 241 257 257 254 237 213 236 226 241 223 255 253 260 265 262 254 257 266 269
269 270 263 257 255 248 235 227 232 220 217 213 217 211 211 224 241 222 238 240 249 252 251 243 219 220 236 259 254 220 244 247 252 257 257 251 262 268
270 269 267 265 263 258 250 245 242 230 210 211 218 218 212 219 229 232 226 236 251 253 257 240 224 224 242 258 274 261 223 251 244 250 252 250 246 250
265 262 265 266 264 259 256 255 239 213 206 208 215 216 217 218 232 230 234 248 245 240 247 248 241 235 244 262 258 262 254 237 238 241 246 250 256 258
259 258 261 263 261 259 255 250 248 250 236 214 222 226 227 220 236 241 245 249 243 246 254 262 248 229 233 243 260 268 270 259 235 238 239 236 245 246
261 253 254 258 262 258 265 258 245 244 232 232 233 229 230 236 232 238 245 246 249 250 252 257 254 239 242 240 247 256 261 262 255 257 245 242 246 249